道奇Dodge_CAN数据表【30】更新时间:2018-03-19

2018-07-26 15:42:41 311
Manufacturer :
Year of production :
Engine type :
Country code :
Can mode :
OBD connection :
Vehicle speed :
Car speed id :
Turn signal :
Turn signal id :
Speed rpm :
Speed id :
Brake signal :
Brake signal id :
Headlamp signal :
Headlight id :
Creation date :
File version :
立即下载
NoManufacturerModelYearEngine TypeCountry CodeDateDetails
1DodgeDart2013Gasoline GG2014-11-13 17:21:35View Multi CAN File
2DodgeDart2014Gasoline GG2014-11-13 17:21:35View Multi CAN File
3DodgeCharger2011Gasoline GG2014-11-13 17:32:19View Multi CAN File
4DodgeCharger2012Gasoline GG2014-11-13 17:32:19View Multi CAN File
5DodgeCharger2013Gasoline GG2014-11-13 17:32:19View Multi CAN File
6DodgeCharger2014Gasoline GG2014-11-13 17:32:19View Multi CAN File
7DodgeRam2011Gasoline GG2014-11-13 17:38:30View Multi CAN File
8DodgeGrand Caravan2012Gasoline GG2014-11-13 17:39:25View Multi CAN File
9DodgeRam2014Gasoline GG2015-08-18 11:16:14View Multi CAN File
10DodgeRam2012Gasoline IL2017-03-11 22:11:54View Multi CAN File
11DodgeRam2013Gasoline IL2017-03-11 22:11:54View Multi CAN File
12DodgeCaliber2009Gasoline IL2017-03-20 19:11:56View Multi CAN File
13DodgeCaliber2010Gasoline IL2017-03-20 19:11:56View Multi CAN File
14DodgeCaliber2011Gasoline IL2017-03-20 19:11:56View Multi CAN File
15DodgeCaliber2012Gasoline IL2017-03-20 19:11:56View Multi CAN File
16DodgeRam2014Diesel IL2017-06-07 15:09:12View Multi CAN File
17DodgeRam2015Diesel IL2017-06-07 15:09:12View Multi CAN File
18DodgeRam2016Diesel IL2017-06-07 15:09:12View Multi CAN File
19DodgeRam2017Diesel IL2017-06-07 15:09:12View Multi CAN File
20DodgeJourney2011Gasoline IL2017-10-06 18:54:47View Multi CAN File
21DodgeJourney2012Gasoline IL2017-10-06 18:54:47View Multi CAN File
22DodgeJourney2013Gasoline IL2017-10-06 18:54:47View Multi CAN File
23DodgeJourney2014Gasoline IL2017-10-06 18:54:47View Multi CAN File
24DodgeJourney2015Gasoline IL2017-10-06 18:54:47View Multi CAN File
25DodgeChallenger2016Gasoline IL2018-02-21 16:12:50View Multi CAN File
26DodgeChallenger2017Gasoline IL2018-02-21 16:12:50View Multi CAN File
27DodgeGrand Caravan2011Gasoline US2018-03-19 11:04:42View Multi CAN File
28DodgeGrand Caravan2012Gasoline US2018-03-19 11:04:42View Multi CAN File
29DodgeGrand Caravan2013GasolineUS2018-03-19 11:04:42View Multi CAN File
30DodgeGrand Caravan2014Gasoline US2018-03-19 11:04:42View Multi CAN File


电话咨询
邮件咨询
在线地图
QQ客服